Location: Unspecified
(0.0000°N, 0.0000°E)
Time: 14:27:45
(UTC+00:00)

Explorer 11/Cluster Stage 4 - All Passes

Search period start: 24 July 2017 00:00
Search period end: 03 August 2017 00:00
Orbit: 467 x 1263 km, 28.8° (Epoch: 23 July)

Date Brightness Start Highest point End Pass type
(mag) Time Alt. Az. Time Alt. Az. Time Alt. Az.
24 Jul - 03:39:30 10° SSW 03:44:49 18° SSE 03:50:02 10° ESE visible
24 Jul - 05:27:01 10° SW 05:34:57 50° SSE 05:42:01 10° ENE visible
24 Jul - 07:16:45 10° WSW 07:24:20 53° NNW 07:30:39 10° NE daylight
24 Jul - 09:10:17 10° WNW 09:13:20 13° NNW 09:16:09 10° N daylight
24 Jul - 16:32:35 10° N 16:33:53 11° NNE 16:35:14 10° NE daylight
24 Jul - 18:18:11 10° WNW 18:22:03 89° SSW 18:26:40 10° ESE daylight
24 Jul - 20:07:46 10° WSW 20:10:52 18° SSW 20:14:24 10° SSE visible
25 Jul - 03:28:49 10° SSW 03:34:42 21° SSE 03:40:32 10° ESE visible
25 Jul - 05:16:34 10° SW 05:24:42 59° SSE 05:32:05 10° ENE visible
25 Jul - 07:06:35 10° WSW 07:14:05 45° NNW 07:20:28 10° NE daylight
25 Jul - 09:01:00 10° NW 09:03:17 12° NNW 09:05:26 10° N daylight
25 Jul - 16:21:47 10° N 16:23:55 15° NNE 16:26:07 10° ENE daylight
25 Jul - 18:08:20 10° WNW 18:12:05 65° SSW 18:16:28 10° SE daylight
25 Jul - 19:58:47 10° SW 20:00:59 13° SSW 20:03:23 10° S visible
26 Jul - 03:18:12 10° SSW 03:24:33 24° SSE 03:30:54 10° ESE visible
26 Jul - 05:06:09 10° SW 05:14:26 69° SSE 05:22:03 10° ENE visible
26 Jul - 06:56:29 10° W 07:03:50 39° NNW 07:10:14 10° NE daylight
26 Jul - 08:52:21 10° NW 08:53:15 10° NNW 08:54:07 10° NNW daylight
26 Jul - 16:11:17 10° NNW 16:13:58 19° NNE 16:16:42 10° ENE daylight
26 Jul - 17:58:33 10° WNW 18:02:08 46° SSW 18:06:13 10° SE daylight
27 Jul - 03:07:41 10° SSW 03:14:21 28° SSE 03:21:10 10° E visible
27 Jul - 04:55:48 10° SW 05:04:08 81° SSE 05:11:58 10° ENE visible
27 Jul - 06:46:28 10° W 06:53:35 34° NNW 06:59:57 10° NNE daylight
27 Jul - 16:00:57 10° NNW 16:04:01 25° NNE 16:07:07 10° E daylight
27 Jul - 17:48:51 10° W 17:52:12 33° SSW 17:55:54 10° SE daylight
28 Jul - 01:12:41 10° SSE 01:13:59 10° SSE 01:15:19 10° SSE night (unlit)
28 Jul - 02:57:13 10° SSW 03:04:08 32° SSE 03:11:20 10° E visible
28 Jul - 04:45:30 10° WSW 04:53:49 88° NNW 05:01:48 10° ENE visible
28 Jul - 06:36:31 10° W 06:43:21 29° NNW 06:49:35 10° NNE daylight
28 Jul - 15:50:41 10° NW 15:54:04 35° NNE 15:57:25 10° E daylight
28 Jul - 17:39:16 10° W 17:42:17 24° SSW 17:45:31 10° SSE daylight
29 Jul - 01:01:25 10° S 01:03:58 12° SSE 01:06:36 10° SE night (unlit)
29 Jul - 02:46:48 10° SW 02:53:53 37° SSE 03:01:23 10° E visible
29 Jul - 04:35:16 10° WSW 04:43:30 76° NNW 04:51:34 10° NE visible
29 Jul - 06:26:38 10° W 06:33:08 26° NNW 06:39:10 10° NNE daylight
29 Jul - 15:40:29 10° NW 15:44:08 49° NNE 15:47:38 10° ESE daylight
29 Jul - 17:29:47 10° WSW 17:32:21 18° SSW 17:35:02 10° SSE daylight
30 Jul - 00:50:36 10° S 00:53:53 13° SSE 00:57:23 10° SE night (unlit)
30 Jul - 02:36:26 10° SW 02:43:37 43° SSE 02:51:22 10° E visible
30 Jul - 04:25:07 10° WSW 04:33:11 66° NNW 04:41:16 10° NE visible
30 Jul - 06:16:53 10° WNW 06:22:57 22° NNW 06:28:42 10° NNE daylight
30 Jul - 13:44:12 10° N 13:45:34 11° NNE 13:46:51 10° NE daylight
30 Jul - 15:30:20 10° NW 15:34:11 71° NNE 15:37:46 10° ESE daylight
30 Jul - 17:20:33 10° WSW 17:22:26 14° SSW 17:24:21 10° S daylight
31 Jul - 00:40:00 10° S 00:43:49 15° SSE 00:47:57 10° ESE night (unlit)
31 Jul - 02:26:09 10° SW 02:33:20 50° SSE 02:41:16 10° ENE visible
31 Jul - 04:15:02 10° WSW 04:22:52 56° NNW 04:30:54 10° NE visible
31 Jul - 06:07:13 10° WNW 06:12:47 19° NNW 06:18:09 10° NNE daylight
31 Jul - 13:32:59 10° NNW 13:35:40 15° NNE 13:38:07 10° ENE daylight
31 Jul - 15:20:14 10° WNW 15:24:14 82° SSW 15:27:51 10° ESE daylight
31 Jul - 17:12:17 10° SSW 17:12:31 10° SSW 17:12:44 10° SSW daylight
01 Aug - 00:29:28 10° S 00:33:42 17° SSE 00:38:21 10° ESE night (unlit)
01 Aug - 02:15:54 10° SW 02:23:02 59° SSE 02:31:06 10° ENE visible
01 Aug - 04:05:01 10° WSW 04:12:35 48° NNW 04:20:29 10° NE visible
01 Aug - 05:57:41 10° WNW 06:02:40 17° NNW 06:07:31 10° NNE daylight
01 Aug - 13:22:11 10° NNW 13:25:46 21° NNE 13:28:54 10° ENE daylight
01 Aug - 15:10:12 10° WNW 15:14:16 58° SSW 15:17:53 10° SE daylight
02 Aug - 00:19:03 10° SSW 00:23:34 20° SSE 00:28:39 10° ESE night (unlit)
02 Aug - 02:05:43 10° SW 02:12:45 69° SSE 02:20:52 10° ENE visible
02 Aug - 03:55:06 10° W 04:02:20 41° NNW 04:09:59 10° NE visible
02 Aug - 05:48:18 10° NW 05:52:34 15° NNW 05:56:47 10° N daylight
02 Aug - 13:11:33 10° NNW 13:15:50 27° NNE 13:19:27 10° E daylight
02 Aug - 15:00:12 10° WNW 15:04:16 43° SSW 15:07:50 10° SE daylight
